Find Starlink 11714

NORAD ID: 64134 Int'l Des: 2025-111 Owner: SPXS Country: US Constellation: starlink operational
別名: STARLINK-11714 [DTC] celestrak
LEOCIRCULAR

現在のビュー

3D地球を読み込み中...

About Starlink 11714

Starlink 11714 (NORAD 64134) is a starlink constellation satellite (v2 mini d2c) launched May 24, 2025 by SPXS of US. It operates in LEO, CIRCULAR orbit with a mass of 960.00 kg.

次回通過

Passes for default location (London). Set your location on the main map for personalized predictions.

高度履歴

Loading altitude history...

軌道要素

1 64134U 25111M 26237.50155580 .00239126 00000-0 18148-2 0 9994
2 64134 43.0005 35.8768 0005279 297.3507 62.6823 15.70818666 73190
Epoch: Aug 25, 2026 • Age: 27 hours

現在のステータス

高度 364.3 km
遠地点 / 近地点 N/A
速度 7.69 km/s
衛星直下点 -41.38°S, 116.48°E
打ち上げ日 May 24, 2025
運用期間 1.2 years
タイプ internet

技術仕様

分類 Payload
質量 960.00 kg
乾燥質量 910.00 kg
総質量 960.00 kg
長さ 0.30 m
直径 4.10 m
スパン 29.00 m
形状 Box + pan
製造者 SPXS
バスタイプ Starlink V2MD
フェーズステータス In Orbit
所有者/国 SPXS/US

Most Searched